Weather Roundup
Issued by NWS Springfield, MO

Home | Current Version | Previous Version | Text Only | Print | Product List | Glossary On
Versions: 1 2 3 4 5 6 7 8 9 10 11 12 13 14 15 16 17 18 19 20 21 22 23 24 25 26 27 28 29 30 31 32 33 34 35 36 37 38 39 40 41 42 43 44 45 46 47 48 49 50
000
NZUS99 KSGF 272007
HRRSGF

HOURLY WEATHER
NATIONAL WEATHER SERVICE SPRINGFIELD MO
300 PM CDT MON MAR 27 2017

......SGF CWA......

CITY           SKY/WX    TMP DP  RH WIND       PRES   REMARKS
SPRINGFIELD    CLOUDY    59  53  80 NW10      29.85R
JOPLIN         CLOUDY    53  51  93 NW10      29.91R
WEST PLAINS    PTSUNNY   64  56  75 W8        29.83S
ROLLA          CLOUDY    60  56  86 NW8       29.81S
OSAGE BEACH    CLOUDY   N/A N/A N/A NW10G16   29.83S
BRANSON        PTSUNNY   63  54  72 NW9       29.85S

......SURROUNDING SGF CWA......

CITY           SKY/WX    TMP DP  RH WIND       PRES   REMARKS
CHANUTE        CLOUDY    54  47  77 N8        29.93R
PARSONS        CLOUDY    56  48  74 NW14      29.94S
COFFEYVILLE    CLOUDY    56  49  77 NW9       29.93F
EMPORIA        CLOUDY    52  47  83 N7        29.94S
GROVE OK       CLOUDY    55  52  88 NW8       29.92S
ROGERS AR      CLOUDY    57  53  86 W12       29.89R
SILOAM SPRINGS CLOUDY    55  48  76 NW10      29.90R
HARRISON AR    PTSUNNY   67  55  65 NW12      29.84S
NEAR YELLVILLE MOSUNNY   66  54  63 NW13      29.80F

......KANSAS AND MISSOURI......

CITY           SKY/WX    TMP DP  RH WIND       PRES   REMARKS
KANSAS CTY INT CLOUDY    50  49  96 N13       29.92F
DOWNTOWN KC    CLOUDY    52  47  83 N8        29.91F
COLUMBIA       LGT RAIN  54  53  97 NE9       29.84S FOG
SEDALIA        CLOUDY    53  51  93 NW10      29.88S
ST JOSEPH      CLOUDY    53  47  79 N12       29.94F
ST LOUIS       CLOUDY    56  53  90 NW10      29.83S
SPIRIT OF STL  CLOUDY    56  54  93 N7        29.82F FOG
KIRKSVILLE     CLOUDY    51  49  92 N12       29.89S
WICHITA        CLOUDY    53  46  77 N12       29.95F
TOPEKA         CLOUDY    55  49  80 N13       29.93F
OLATHE         CLOUDY    52  48  86 N13       29.91S

......TENNESSEE......

CITY           SKY/WX    TMP DP  RH WIND       PRES   REMARKS
MEMPHIS        PTSUNNY   79  62  56 SW17G28   29.78F
NASHVILLE      PTSUNNY   78  57  48 S18G28    29.84F

......ARKANSAS.......

CITY           SKY/WX    TMP DP  RH WIND       PRES   REMARKS
FAYETTEVILLE   CLOUDY    57  56  96 NW7       29.89R
FT SMITH       CLOUDY    64  53  67 W12       29.88R
LITTLE ROCK    MOSUNNY   80  63  55 W12G21    29.79F

......OKLAHOMA.......

CITY           SKY/WX    TMP DP  RH WIND       PRES   REMARKS
TULSA          CLOUDY    61  49  64 NW7       29.91F
PONCA CITY     CLOUDY    55  46  71 N12       29.94F
MCALESTER      MOSUNNY   66  51  58 W8        29.92F
OKLAHOMA CITY  MOSUNNY   65  47  52 N12       29.92F

......IOWA............

CITY           SKY/WX    TMP DP  RH WIND       PRES   REMARKS
DES MOINES     CLOUDY    49  42  77 N7        29.95F
QUAD CITIES    CLOUDY    52  46  80 N5        29.90F

......ILLINOIS........

CITY           SKY/WX    TMP DP  RH WIND       PRES   REMARKS
QUINCY         CLOUDY    54  51  90 NE8       29.85S
CHICAGO        CLOUDY    50  43  77 NE9       29.90F



USA.gov is the U.S. government's official web portal to all federal, state and local government web resources and services.